| time (UTC) | temp F | wind direction | speed knots | gust knots | rain 1hr in | rain 24hr in | rain mn in | humidity % | barometer mb |
| 20260904200904 | 60 | 203 | 6.1 | 14.8 | 0.00 | 0.11 | 0.08 | 80 | 1011.6 |
| 20260904195346 | 60 | 221 | 3.5 | 14.8 | 0.00 | 0.12 | 0.08 | 79 | 1011.5 |
| 20260904193847 | 60 | 238 | 5.2 | 12.2 | 0.00 | 0.14 | 0.08 | 78 | 1011.6 |
| 20260904193347 | 60 | 188 | 4.3 | 13.0 | 0.00 | 0.16 | 0.08 | 77 | 1011.5 |
| 20260904192850 | 61 | 234 | 6.1 | 13.0 | 0.00 | 0.17 | 0.08 | 77 | 1011.6 |
| 20260904191846 | 61 | 271 | 4.3 | 14.8 | 0.00 | 0.19 | 0.08 | 76 | 1011.3 |
| 20260904190847 | 62 | 279 | 6.1 | 13.0 | 0.00 | 0.20 | 0.08 | 76 | 1011.0 |
| 20260904190346 | 62 | 247 | 6.1 | 16.5 | 0.00 | 0.20 | 0.08 | 75 | 1011.0 |
| 20260904185333 | 62 | 248 | 9.6 | 19.1 | 0.00 | 0.20 | 0.08 | 75 | 1011.0 |
| 20260904184805 | 62 | 240 | 6.1 | 20.0 | 0.00 | 0.20 | 0.08 | 75 | 1010.9 |
| 20260904184307 | 62 | 254 | 13.9 | 20.0 | 0.00 | 0.20 | 0.08 | 75 | 1010.8 |
| 20260904183804 | 62 | 265 | 7.0 | 15.6 | 0.00 | 0.20 | 0.08 | 75 | 1010.7 |
| 20260904183302 | 62 | 240 | 7.0 | 15.6 | 0.00 | 0.20 | 0.08 | 75 | 1010.5 |
| 20260904182804 | 62 | 186 | 5.2 | 13.0 | 0.00 | 0.20 | 0.08 | 74 | 1010.6 |
| 20260904182301 | 62 | 262 | 7.8 | 14.8 | 0.00 | 0.20 | 0.08 | 74 | 1010.4 |
| 20260904181746 | 63 | 248 | 7.0 | 13.9 | 0.00 | 0.20 | 0.08 | 74 | 1010.4 |
| 20260904181243 | 63 | 274 | 6.1 | 13.9 | 0.00 | 0.20 | 0.08 | 73 | 1010.4 |
| 20260904180737 | 63 | 224 | 6.1 | 13.0 | 0.00 | 0.20 | 0.08 | 71 | 1010.4 |
| 20260904180234 | 63 | 219 | 8.7 | 13.9 | 0.00 | 0.20 | 0.08 | 71 | 1010.3 |
| 20260904175735 | 63 | 293 | 9.6 | 13.9 | 0.00 | 0.20 | 0.08 | 67 | 1010.2 |
| 20260904175210 | 64 | 252 | 7.0 | 15.6 | 0.00 | 0.20 | 0.08 | 67 | 1010.0 |
| 20260904174205 | 64 | 248 | 7.8 | 13.9 | 0.00 | 0.20 | 0.08 | 65 | 1010.0 |
| 20260904173144 | 64 | 257 | 7.8 | 24.3 | 0.00 | 0.20 | 0.08 | 63 | 1009.9 |
| 20260904172645 | 64 | 283 | 11.3 | 24.3 | 0.00 | 0.20 | 0.08 | 63 | 1010.1 |
| 20260904171645 | 65 | 230 | 7.0 | 20.9 | 0.00 | 0.20 | 0.08 | 62 | 1009.7 |
| 20260904171145 | 65 | 307 | 9.6 | 13.9 | 0.00 | 0.20 | 0.08 | 62 | 1009.8 |
| 20260904170646 | 65 | 250 | 8.7 | 15.6 | 0.00 | 0.20 | 0.08 | 61 | 1009.7 |
| 20260904170146 | 66 | 276 | 8.7 | 15.6 | 0.00 | 0.20 | 0.08 | 60 | 1009.6 |
| 20260904165644 | 66 | 269 | 7.8 | 16.5 | 0.00 | 0.20 | 0.08 | 59 | 1009.6 |
| 20260904165145 | 66 | 231 | 9.6 | 17.4 | 0.00 | 0.20 | 0.08 | 60 | 1009.6 |
| 20260904164643 | 66 | 258 | 7.8 | 24.3 | 0.00 | 0.20 | 0.08 | 60 | 1009.6 |
| 20260904164148 | 66 | 281 | 7.8 | 24.3 | 0.00 | 0.20 | 0.08 | 60 | 1009.6 |
| 20260904163646 | 66 | 197 | 6.1 | 15.6 | 0.00 | 0.20 | 0.08 | 63 | 1009.6 |
| 20260904163146 | 66 | 240 | 7.8 | 15.6 | 0.00 | 0.20 | 0.08 | 63 | 1009.5 |
| 20260904162647 | 65 | 224 | 7.0 | 14.8 | 0.00 | 0.20 | 0.08 | 63 | 1009.5 |
| 20260904161646 | 66 | 247 | 7.8 | 16.5 | 0.00 | 0.20 | 0.08 | 59 | 1009.2 |
| 20260904161147 | 67 | 248 | 8.7 | 20.9 | 0.00 | 0.20 | 0.08 | 57 | 1009.1 |
| 20260904160147 | 67 | 224 | 7.8 | 13.9 | 0.00 | 0.20 | 0.08 | 58 | 1009.2 |
| 20260904155647 | 67 | 289 | 8.7 | 20.9 | 0.00 | 0.20 | 0.08 | 56 | 1009.2 |
| 20260904155145 | 67 | 221 | 12.2 | 20.9 | 0.00 | 0.20 | 0.08 | 56 | 1009.2 |
| 20260904154645 | 67 | 243 | 9.6 | 20.9 | 0.00 | 0.20 | 0.08 | 57 | 1008.9 |
| 20260904153647 | 66 | 241 | 9.6 | 24.3 | 0.00 | 0.20 | 0.08 | 59 | 1008.7 |
| 20260904152646 | 66 | 320 | 10.4 | 20.0 | 0.00 | 0.20 | 0.08 | 60 | 1008.6 |
| 20260904152147 | 66 | 266 | 11.3 | 20.0 | 0.00 | 0.20 | 0.08 | 62 | 1008.4 |
| 20260904151645 | 65 | 286 | 8.7 | 19.1 | 0.00 | 0.20 | 0.08 | 63 | 1008.5 |
| 20260904151146 | 65 | 285 | 13.0 | 19.1 | 0.00 | 0.20 | 0.08 | 63 | 1008.4 |
| 20260904150646 | 65 | 234 | 12.2 | 19.1 | 0.00 | 0.20 | 0.08 | 63 | 1008.4 |
| 20260904150146 | 65 | 265 | 14.8 | 18.2 | 0.00 | 0.20 | 0.08 | 65 | 1008.4 |
| 20260904145645 | 65 | 252 | 6.1 | 17.4 | 0.00 | 0.20 | 0.08 | 66 | 1008.3 |
| 20260904145146 | 65 | 259 | 9.6 | 17.4 | 0.00 | 0.20 | 0.08 | 66 | 1008.4 |
| 20260904144646 | 65 | 241 | 9.6 | 16.5 | 0.00 | 0.20 | 0.08 | 66 | 1008.2 |
| 20260904144150 | 65 | 271 | 7.0 | 18.2 | 0.00 | 0.20 | 0.08 | 67 | 1008.1 |
| 20260904143651 | 65 | 252 | 12.2 | 18.2 | 0.00 | 0.20 | 0.08 | 65 | 1008.1 |
| 20260904143146 | 65 | 293 | 8.7 | 17.4 | 0.00 | 0.20 | 0.08 | 65 | 1007.9 |
| 20260904142646 | 66 | 186 | 13.9 | 17.4 | 0.00 | 0.20 | 0.08 | 65 | 1007.9 |
| 20260904141646 | 66 | 269 | 7.8 | 18.2 | 0.00 | 0.20 | 0.08 | 65 | 1007.8 |
| 20260904141146 | 65 | 262 | 7.8 | 16.5 | 0.00 | 0.20 | 0.08 | 66 | 1007.8 |
| 20260904140646 | 65 | 271 | 8.7 | 16.5 | 0.00 | 0.20 | 0.08 | 66 | 1007.8 |
| 20260904140147 | 65 | 274 | 9.6 | 16.5 | 0.00 | 0.20 | 0.08 | 66 | 1007.6 |
| 20260904135645 | 65 | 250 | 7.0 | 16.5 | 0.00 | 0.20 | 0.08 | 69 | 1007.6 |
| 20260904135147 | 65 | 259 | 8.7 | 17.4 | 0.00 | 0.20 | 0.08 | 68 | 1007.5 |
| 20260904134646 | 65 | 251 | 10.4 | 18.2 | 0.00 | 0.20 | 0.08 | 68 | 1007.6 |
| 20260904134155 | 65 | 255 | 8.7 | 18.2 | 0.00 | 0.20 | 0.08 | 69 | 1007.2 |
| 20260904133646 | 65 | 268 | 7.0 | 16.5 | 0.00 | 0.20 | 0.08 | 68 | 1007.1 |
| 20260904133146 | 66 | 235 | 9.6 | 22.6 | 0.00 | 0.20 | 0.08 | 68 | 1007.1 |
| 20260904132646 | 65 | 244 | 6.1 | 22.6 | 0.00 | 0.20 | 0.08 | 67 | 1007.1 |
| 20260904132147 | 65 | 265 | 9.6 | 19.1 | 0.00 | 0.20 | 0.08 | 69 | 1007.1 |
| 20260904131646 | 64 | 243 | 11.3 | 20.9 | 0.00 | 0.20 | 0.08 | 70 | 1006.9 |
| 20260904131147 | 64 | 248 | 8.7 | 22.6 | 0.00 | 0.20 | 0.08 | 69 | 1007.0 |
| 20260904130647 | 63 | 269 | 12.2 | 22.6 | 0.00 | 0.20 | 0.08 | 73 | 1007.0 |
| 20260904130147 | 63 | 275 | 5.2 | 15.6 | 0.00 | 0.20 | 0.08 | 73 | 1006.9 |
| 20260904125647 | 63 | 245 | 9.6 | 15.6 | 0.00 | 0.20 | 0.08 | 73 | 1006.9 |
| 20260904125146 | 63 | 227 | 7.0 | 19.1 | 0.00 | 0.20 | 0.08 | 72 | 1006.8 |
| 20260904124646 | 63 | 285 | 7.0 | 19.1 | 0.00 | 0.20 | 0.08 | 71 | 1006.7 |
| 20260904124146 | 63 | 238 | 11.3 | 20.9 | 0.00 | 0.20 | 0.08 | 72 | 1006.8 |
| 20260904123644 | 63 | 227 | 12.2 | 20.9 | 0.00 | 0.20 | 0.08 | 72 | 1006.9 |
| 20260904123146 | 64 | 285 | 9.6 | 20.0 | 0.00 | 0.20 | 0.08 | 72 | 1006.7 |
| 20260904122646 | 64 | 221 | 9.6 | 20.9 | 0.00 | 0.20 | 0.08 | 72 | 1006.7 |
| 20260904122146 | 64 | 259 | 9.6 | 20.9 | 0.00 | 0.20 | 0.08 | 72 | 1006.5 |
| 20260904121646 | 65 | 243 | 7.8 | 20.9 | 0.00 | 0.20 | 0.08 | 72 | 1006.5 |
| 20260904121146 | 65 | 166 | 11.3 | 20.9 | 0.00 | 0.20 | 0.08 | 71 | 1006.6 |
| 20260904120145 | 65 | 259 | 13.9 | 22.6 | 0.00 | 0.20 | 0.08 | 70 | 1006.2 |
| 20260904115646 | 64 | 281 | 13.9 | 22.6 | 0.00 | 0.20 | 0.08 | 71 | 1006.2 |
| 20260904115147 | 63 | 241 | 11.3 | 20.0 | 0.00 | 0.20 | 0.08 | 70 | 1006.1 |
| 20260904114650 | 64 | 223 | 11.3 | 20.0 | 0.00 | 0.20 | 0.08 | 70 | 1006.1 |
| 20260904114150 | 64 | 244 | 13.0 | 20.0 | 0.00 | 0.20 | 0.08 | 71 | 1006.0 |
| 20260904113646 | 63 | 244 | 8.7 | 18.2 | 0.00 | 0.20 | 0.08 | 73 | 1005.9 |
| 20260904113147 | 63 | 223 | 10.4 | 18.2 | 0.00 | 0.20 | 0.08 | 73 | 1006.0 |
| 20260904112647 | 63 | 238 | 8.7 | 18.2 | 0.00 | 0.20 | 0.08 | 73 | 1006.0 |
| 20260904111646 | 64 | 224 | 9.6 | 15.6 | 0.00 | 0.20 | 0.08 | 73 | 1005.9 |
| 20260904111144 | 64 | 293 | 6.1 | 19.1 | 0.00 | 0.20 | 0.08 | 72 | 1005.7 |
| 20260904110645 | 64 | 262 | 8.7 | 19.1 | 0.00 | 0.20 | 0.08 | 71 | 1005.8 |
| 20260904110145 | 64 | 214 | 6.1 | 20.0 | 0.00 | 0.20 | 0.08 | 72 | 1005.9 |
| 20260904105645 | 64 | 227 | 13.9 | 20.0 | 0.00 | 0.20 | 0.08 | 73 | 1005.7 |
| 20260904105146 | 64 | 234 | 8.7 | 17.4 | 0.00 | 0.20 | 0.08 | 74 | 1005.7 |
| 20260904104145 | 64 | 238 | 5.2 | 14.8 | 0.00 | 0.20 | 0.08 | 73 | 1005.7 |
| 20260904103645 | 64 | 216 | 7.8 | 14.8 | 0.00 | 0.20 | 0.08 | 72 | 1005.6 |
| 20260904103145 | 64 | 237 | 8.7 | 17.4 | 0.00 | 0.20 | 0.08 | 73 | 1005.4 |
| 20260904102644 | 64 | 251 | 9.6 | 18.2 | 0.00 | 0.20 | 0.08 | 71 | 1005.3 |
| 20260904102132 | 63 | 243 | 9.6 | 20.9 | 0.00 | 0.20 | 0.08 | 73 | 1005.3 |
| 20260904101611 | 62 | 223 | 13.0 | 20.9 | 0.00 | 0.20 | 0.08 | 75 | 1005.3 |
| 20260904101104 | 62 | 220 | 7.0 | 13.9 | 0.00 | 0.20 | 0.08 | 74 | 1005.3 |
| 20260904100605 | 62 | 233 | 7.0 | 19.1 | 0.00 | 0.20 | 0.08 | 74 | 1005.3 |
| 20260904100106 | 62 | 223 | 10.4 | 19.1 | 0.00 | 0.20 | 0.08 | 75 | 1005.3 |
| 20260904095604 | 62 | 248 | 12.2 | 18.2 | 0.00 | 0.20 | 0.08 | 75 | 1005.4 |
| 20260904094606 | 62 | 292 | 8.7 | 15.6 | 0.00 | 0.20 | 0.08 | 76 | 1005.2 |
| 20260904094047 | 62 | 213 | 7.0 | 15.6 | 0.00 | 0.20 | 0.08 | 76 | 1005.3 |
| 20260904093544 | 62 | 268 | 7.8 | 14.8 | 0.00 | 0.20 | 0.08 | 76 | 1005.3 |
| 20260904093044 | 62 | 259 | 9.6 | 20.0 | 0.00 | 0.20 | 0.08 | 76 | 1005.3 |
| 20260904092549 | 63 | 213 | 12.2 | 20.0 | 0.00 | 0.20 | 0.08 | 77 | 1005.4 |
| 20260904092046 | 63 | 261 | 7.8 | 16.5 | 0.00 | 0.20 | 0.08 | 77 | 1005.2 |
| 20260904091538 | 63 | 224 | 5.2 | 15.6 | 0.00 | 0.20 | 0.08 | 79 | 1005.3 |
| 20260904090507 | 61 | 233 | 8.7 | 15.6 | 0.00 | 0.20 | 0.08 | 81 | 1005.1 |
| 20260904090015 | 61 | 268 | 7.8 | 15.6 | 0.00 | 0.20 | 0.08 | 81 | 1005.2 |
| 20260904085506 | 60 | 259 | 7.8 | 13.0 | 0.00 | 0.20 | 0.08 | 81 | 1005.1 |
| 20260904084444 | 60 | 210 | 7.0 | 17.4 | 0.00 | 0.20 | 0.08 | 82 | 1005.1 |
| 20260904083938 | 60 | 203 | 11.3 | 17.4 | 0.00 | 0.20 | 0.08 | 83 | 1005.1 |
| 20260904083435 | 60 | 231 | 5.2 | 13.0 | 0.00 | 0.20 | 0.08 | 82 | 1005.1 |
| 20260904082932 | 60 | 241 | 8.7 | 13.0 | 0.00 | 0.20 | 0.08 | 82 | 1005.0 |
| 20260904082432 | 60 | 293 | 7.0 | 13.0 | 0.00 | 0.20 | 0.08 | 82 | 1005.0 |
| 20260904081932 | 60 | 255 | 7.0 | 15.6 | 0.00 | 0.20 | 0.08 | 82 | 1004.9 |
| 20260904080919 | 59 | 233 | 6.1 | 13.9 | 0.00 | 0.22 | 0.08 | 84 | 1005.1 |
| 20260904080406 | 59 | 254 | 7.8 | 15.6 | 0.00 | 0.22 | 0.08 | 84 | 1005.1 |
| 20260904075405 | 59 | 282 | 7.8 | 13.0 | 0.00 | 0.22 | 0.08 | 85 | 1004.8 |
| 20260904074855 | 59 | 272 | 7.8 | 20.0 | 0.00 | 0.22 | 0.08 | 86 | 1004.8 |
| 20260904074347 | 59 | 166 | 9.6 | 21.7 | 0.00 | 0.22 | 0.08 | 86 | 1004.6 |
| 20260904073844 | 59 | 238 | 10.4 | 21.7 | 0.00 | 0.22 | 0.08 | 89 | 1004.5 |
| 20260904073334 | 59 | 231 | 6.1 | 16.5 | 0.00 | 0.22 | 0.08 | 92 | 1004.5 |
| 20260904072832 | 59 | 228 | 7.8 | 13.9 | 0.00 | 0.22 | 0.08 | 93 | 1004.5 |
| 20260904071835 | 59 | 283 | 5.2 | 13.0 | 0.00 | 0.22 | 0.08 | 93 | 1004.5 |
| 20260904071333 | 58 | 238 | 6.1 | 15.6 | 0.00 | 0.22 | 0.08 | 93 | 1004.3 |
| 20260904070816 | 58 | 250 | 9.6 | 15.6 | 0.00 | 0.22 | 0.08 | 94 | 1004.3 |
| 20260904065803 | 58 | 192 | 5.2 | 10.4 | 0.00 | 0.22 | 0.08 | 94 | 1004.2 |
| 20260904065307 | 58 | 210 | 6.1 | 13.9 | 0.00 | 0.22 | 0.08 | 95 | 1004.1 |
| 20260904064756 | 58 | 204 | 6.1 | 14.8 | 0.00 | 0.22 | 0.08 | 95 | 1004.0 |
| 20260904064250 | 58 | 217 | 5.2 | 14.8 | 0.00 | 0.22 | 0.08 | 95 | 1004.1 |
| 20260904063744 | 58 | 192 | 4.3 | 12.2 | 0.00 | 0.22 | 0.08 | 95 | 1004.0 |
| 20260904063245 | 58 | 214 | 7.0 | 13.9 | 0.00 | 0.22 | 0.08 | 95 | 1004.1 |
| 20260904062748 | 58 | 228 | 7.0 | 13.9 | 0.00 | 0.22 | 0.08 | 95 | 1004.1 |
| 20260904062247 | 58 | 234 | 4.3 | 7.8 | 0.00 | 0.22 | 0.08 | 95 | 1004.1 |
| 20260904061248 | 58 | 173 | 3.5 | 7.8 | 0.00 | 0.22 | 0.08 | 95 | 1004.3 |
| 20260904060744 | 58 | 178 | 5.2 | 10.4 | 0.00 | 0.22 | 0.08 | 95 | 1004.3 |
| 20260904055745 | 58 | 213 | 3.5 | 13.0 | 0.00 | 0.22 | 0.08 | 95 | 1004.4 |
| 20260904055245 | 58 | 162 | 7.0 | 13.0 | 0.00 | 0.22 | 0.08 | 95 | 1004.3 |
| 20260904054748 | 58 | 224 | 5.2 | 10.4 | 0.00 | 0.22 | 0.08 | 95 | 1004.3 |
| 20260904054244 | 58 | 207 | 6.1 | 13.0 | 0.00 | 0.22 | 0.08 | 95 | 1004.4 |
| 20260904053747 | 58 | 197 | 7.0 | 13.0 | 0.00 | 0.22 | 0.08 | 95 | 1004.4 |
| 20260904053249 | 58 | 193 | 6.1 | 13.0 | 0.00 | 0.22 | 0.08 | 95 | 1004.3 |
| 20260904052745 | 58 | 186 | 7.8 | 13.0 | 0.00 | 0.22 | 0.08 | 95 | 1004.4 |
| 20260904052245 | 58 | 171 | 5.2 | 10.4 | 0.00 | 0.22 | 0.08 | 95 | 1004.3 |
| 20260904051746 | 58 | 220 | 5.2 | 10.4 | 0.00 | 0.22 | 0.08 | 95 | 1004.5 |
| 20260904051245 | 58 | 190 | 3.5 | 10.4 | 0.00 | 0.22 | 0.08 | 95 | 1004.6 |
| 20260904050746 | 58 | 217 | 4.3 | 10.4 | 0.00 | 0.22 | 0.08 | 95 | 1004.7 |
| 20260904050246 | 58 | 195 | 3.5 | 7.8 | 0.00 | 0.22 | 0.08 | 95 | 1004.7 |
| 20260904045745 | 58 | 206 | 4.3 | 9.6 | 0.00 | 0.22 | 0.08 | 95 | 1004.8 |
| 20260904045244 | 58 | 209 | 4.3 | 11.3 | 0.00 | 0.22 | 0.08 | 95 | 1004.9 |
| 20260904044746 | 58 | 204 | 7.8 | 11.3 | 0.00 | 0.22 | 0.08 | 95 | 1004.8 |
| 20260904044246 | 57 | 214 | 3.5 | 7.8 | 0.00 | 0.22 | 0.08 | 95 | 1004.4 |
| 20260904043746 | 57 | 212 | 4.3 | 7.8 | 0.00 | 0.22 | 0.08 | 95 | 1004.4 |
| 20260904043245 | 57 | 206 | 3.5 | 7.8 | 0.00 | 0.22 | 0.08 | 95 | 1004.4 |
| 20260904042748 | 57 | 200 | 4.3 | 7.8 | 0.00 | 0.22 | 0.08 | 95 | 1004.5 |
| 20260904041746 | 57 | 219 | 6.1 | 9.6 | 0.00 | 0.22 | 0.08 | 95 | 1004.4 |
| 20260904041245 | 57 | 209 | 3.5 | 11.3 | 0.00 | 0.22 | 0.08 | 95 | 1004.6 |
| 20260904040745 | 57 | 223 | 4.3 | 11.3 | 0.00 | 0.22 | 0.08 | 95 | 1004.4 |
| 20260904040245 | 57 | 186 | 5.2 | 9.6 | 0.00 | 0.22 | 0.08 | 95 | 1004.6 |
| 20260904035244 | 57 | 206 | 2.6 | 10.4 | 0.00 | 0.22 | 0.08 | 96 | 1004.8 |
| 20260904034746 | 57 | 188 | 2.6 | 7.8 | 0.00 | 0.22 | 0.08 | 96 | 1004.6 |
| 20260904034245 | 57 | 188 | 5.2 | 7.8 | 0.00 | 0.22 | 0.08 | 96 | 1004.7 |
| 20260904033745 | 57 | 197 | 4.3 | 9.6 | 0.00 | 0.22 | 0.08 | 96 | 1004.9 |
| 20260904033250 | 57 | 197 | 6.1 | 9.6 | 0.00 | 0.22 | 0.08 | 96 | 1005.0 |
| 20260904032244 | 57 | 252 | 2.6 | 10.4 | 0.00 | 0.22 | 0.08 | 96 | 1005.3 |
| 20260904031747 | 57 | 197 | 4.3 | 10.4 | 0.00 | 0.22 | 0.08 | 96 | 1005.5 |
| 20260904031245 | 57 | 182 | 3.5 | 10.4 | 0.00 | 0.22 | 0.08 | 96 | 1005.2 |
| 20260904030746 | 57 | 212 | 3.5 | 10.4 | 0.00 | 0.22 | 0.08 | 96 | 1005.2 |
| 20260904030245 | 57 | 192 | 4.3 | 10.4 | 0.00 | 0.22 | 0.08 | 96 | 1005.2 |
| 20260904025744 | 57 | 178 | 5.2 | 10.4 | 0.00 | 0.22 | 0.08 | 96 | 1005.5 |
| 20260904025247 | 57 | 166 | 3.5 | 7.8 | 0.00 | 0.22 | 0.08 | 96 | 1005.6 |
| 20260904024744 | 57 | 186 | 2.6 | 7.0 | 0.00 | 0.22 | 0.08 | 96 | 1005.7 |
| 20260904023745 | 57 | 188 | 2.6 | 10.4 | 0.00 | 0.22 | 0.08 | 96 | 1005.9 |
| 20260904023245 | 57 | 214 | 3.5 | 10.4 | 0.00 | 0.22 | 0.08 | 96 | 1005.9 |
| 20260904022746 | 57 | 202 | 3.5 | 10.4 | 0.00 | 0.22 | 0.08 | 96 | 1005.7 |
| 20260904021743 | 57 | 207 | 4.3 | 7.8 | 0.01 | 0.22 | 0.08 | 96 | 1005.8 |
| 20260904021246 | 57 | 197 | 4.3 | 10.4 | 0.01 | 0.22 | 0.08 | 96 | 1006.1 |
| 20260904020745 | 57 | 200 | 4.3 | 10.4 | 0.01 | 0.22 | 0.08 | 96 | 1005.9 |
| 20260904020243 | 57 | 207 | 3.5 | 9.6 | 0.01 | 0.22 | 0.08 | 96 | 1006.0 |
| 20260904015746 | 57 | 214 | 4.3 | 9.6 | 0.01 | 0.22 | 0.08 | 96 | 1006.0 |
| 20260904015248 | 57 | 203 | 4.3 | 9.6 | 0.01 | 0.22 | 0.08 | 96 | 1005.9 |
| 20260904014748 | 57 | 195 | 3.5 | 10.4 | 0.02 | 0.22 | 0.08 | 96 | 1006.0 |
| 20260904014244 | 57 | 186 | 4.3 | 10.4 | 0.02 | 0.22 | 0.08 | 96 | 1005.9 |
| 20260904013245 | 57 | 209 | 3.5 | 9.6 | 0.02 | 0.22 | 0.08 | 96 | 1006.2 |
| 20260904012733 | 57 | 199 | 2.6 | 9.6 | 0.02 | 0.22 | 0.08 | 96 | 1006.2 |
| 20260904012233 | 57 | 182 | 6.1 | 11.3 | 0.02 | 0.21 | 0.07 | 96 | 1006.5 |
| 20260904011735 | 57 | 169 | 7.0 | 11.3 | 0.02 | 0.21 | 0.07 | 96 | 1006.3 |
| 20260904011233 | 57 | 196 | 5.2 | 10.4 | 0.02 | 0.21 | 0.07 | 96 | 1006.7 |
| 20260904010731 | 57 | 220 | 3.5 | 10.4 | 0.02 | 0.21 | 0.07 | 96 | 1006.8 |
| 20260904010232 | 57 | 207 | 2.6 | 7.8 | 0.03 | 0.21 | 0.07 | 96 | 1006.8 |
| 20260904005717 | 57 | 196 | 3.5 | 7.8 | 0.04 | 0.21 | 0.07 | 96 | 1007.0 |
| 20260904005204 | 57 | 176 | 4.3 | 9.6 | 0.03 | 0.20 | 0.06 | 96 | 1007.0 |
| 20260904004205 | 57 | 171 | 4.3 | 7.0 | 0.04 | 0.20 | 0.06 | 95 | 1007.4 |
| 20260904003704 | 57 | 192 | 4.3 | 7.8 | 0.04 | 0.20 | 0.06 | 95 | 1007.3 |
| 20260904003145 | 57 | 180 | 4.3 | 9.6 | 0.04 | 0.20 | 0.06 | 95 | 1007.7 |
| 20260904002643 | 57 | 196 | 3.5 | 9.6 | 0.03 | 0.20 | 0.06 | 95 | 1007.5 |
| 20260904002150 | 57 | 178 | 3.5 | 10.4 | 0.04 | 0.20 | 0.06 | 95 | 1007.6 |
| 20260904001648 | 57 | 182 | 5.2 | 10.4 | 0.05 | 0.20 | 0.06 | 95 | 1007.5 |
| 20260904001146 | 57 | 221 | 5.2 | 9.6 | 0.04 | 0.19 | 0.05 | 95 | 1007.5 |
| 20260904000645 | 58 | 200 | 4.3 | 10.4 | 0.03 | 0.18 | 0.04 | 95 | 1007.7 |
| 20260904000133 | 58 | 193 | 5.2 | 10.4 | 0.04 | 0.18 | 0.03 | 95 | 1007.8 |
| 20260903235632 | 58 | 206 | 3.5 | 7.8 | 0.03 | 0.17 | 0.03 | 95 | 1007.9 |
| 20260903234604 | 58 | 206 | 5.2 | 11.3 | 0.02 | 0.17 | 0.02 | 94 | 1008.1 |
| 20260903233045 | 58 | 210 | 5.2 | 10.4 | 0.03 | 0.17 | 0.02 | 94 | 1008.3 |
| 20260903231006 | 58 | 183 | 4.3 | 10.4 | 0.02 | 0.15 | 0.01 | 94 | 1008.7 |
| 20260903230506 | 58 | 214 | 4.3 | 13.9 | 0.02 | 0.15 | 0.01 | 94 | 1008.8 |
| 20260903230004 | 59 | 206 | 4.3 | 13.9 | 0.02 | 0.14 | 0.14 | 94 | 1008.8 |
| 20260903224945 | 59 | 240 | 5.2 | 10.4 | 0.02 | 0.14 | 0.14 | 94 | 1008.8 |
| 20260903224442 | 59 | 223 | 4.3 | 10.4 | 0.02 | 0.14 | 0.14 | 94 | 1008.9 |
| 20260903223433 | 59 | 195 | 5.2 | 9.6 | 0.01 | 0.13 | 0.13 | 94 | 1009.0 |
| 20260903222911 | 59 | 168 | 4.3 | 10.4 | 0.01 | 0.13 | 0.13 | 94 | 1009.0 |
| 20260903222407 | 59 | 176 | 6.1 | 10.4 | 0.01 | 0.13 | 0.13 | 94 | 1009.0 |
| 20260903221906 | 59 | 207 | 6.1 | 10.4 | 0.01 | 0.13 | 0.13 | 94 | 1009.0 |
| 20260903221406 | 59 | 206 | 5.2 | 12.2 | 0.01 | 0.13 | 0.13 | 94 | 1009.0 |
| 20260903220850 | 59 | 152 | 6.1 | 14.8 | 0.02 | 0.13 | 0.13 | 94 | 1008.9 |
| 20260903220344 | 59 | 213 | 6.1 | 14.8 | 0.02 | 0.13 | 0.13 | 94 | 1009.0 |
| 20260903215845 | 59 | 203 | 5.2 | 13.9 | 0.01 | 0.13 | 0.13 | 94 | 1009.2 |
| 20260903215343 | 59 | 213 | 6.1 | 10.4 | 0.01 | 0.13 | 0.13 | 94 | 1009.2 |
| 20260903214843 | 60 | 217 | 5.2 | 10.4 | 0.01 | 0.13 | 0.13 | 94 | 1009.1 |
| 20260903214333 | 60 | 171 | 4.3 | 10.4 | 0.01 | 0.13 | 0.13 | 94 | 1009.3 |
| 20260903213832 | 60 | 204 | 5.2 | 10.4 | 0.01 | 0.13 | 0.13 | 94 | 1009.4 |
| 20260903213306 | 60 | 223 | 7.0 | 13.0 | 0.01 | 0.13 | 0.13 | 94 | 1009.4 |
| 20260903212308 | 60 | 182 | 9.6 | 15.6 | 0.02 | 0.13 | 0.13 | 94 | 1009.4 |
| 20260903211807 | 60 | 200 | 5.2 | 16.5 | 0.02 | 0.13 | 0.13 | 94 | 1009.6 |
| 20260903211305 | 60 | 189 | 10.4 | 16.5 | 0.02 | 0.13 | 0.13 | 94 | 1009.6 |
| 20260903210806 | 60 | 197 | 5.2 | 12.2 | 0.01 | 0.12 | 0.12 | 94 | 1009.7 |
| 20260903205802 | 60 | 154 | 5.2 | 13.0 | 0.02 | 0.12 | 0.12 | 94 | 1009.7 |
| 20260903205306 | 60 | 155 | 7.8 | 15.6 | 0.02 | 0.12 | 0.12 | 94 | 1009.7 |
| 20260903204744 | 60 | 204 | 7.0 | 15.6 | 0.02 | 0.12 | 0.12 | 94 | 1009.6 |
| 20260903204243 | 60 | 212 | 6.1 | 15.6 | 0.02 | 0.12 | 0.12 | 94 | 1009.6 |
| 20260903203733 | 60 | 199 | 8.7 | 15.6 | 0.04 | 0.12 | 0.12 | 94 | 1009.6 |
| 20260903203231 | 61 | 196 | 7.8 | 15.6 | 0.06 | 0.12 | 0.12 | 94 | 1009.8 |
| 20260903202708 | 61 | 190 | 9.6 | 15.6 | 0.07 | 0.12 | 0.12 | 94 | 1009.8 |
| 20260903202205 | 61 | 172 | 7.8 | 16.5 | 0.07 | 0.11 | 0.11 | 94 | 1009.8 |
| 20260903201702 | 61 | 179 | 9.6 | 16.5 | 0.08 | 0.11 | 0.11 | 94 | 1009.9 |